,,,PA_Meas_PMT16A,,PR_Meas_QMR101_102,,RH_Meas_QMH101,,SR_Meas_QMS101,,TA_Meas_QMH101,,GenWind,,GenWind,
date,time,status,PA,status,PR,status,RH,status,SR,status,TA,status,DirAvg,status,SpdAvg,
2010-02-24, 00:00:05,VALID,1004.82,VALID,0,VALID,86.5725,VALID,0,VALID,25.748,VALID,358,VALID,0.534375,
2010-02-24, 00:01:05,VALID,1004.8,VALID,0,VALID,86.5649,VALID,0,VALID,25.748,VALID,17,VALID,1.18438,
2010-02-24, 00:02:05,VALID,1004.79,VALID,0,VALID,86.4886,VALID,0,VALID,25.7674,VALID,347,VALID,0.669141,
2010-02-24, 00:03:05,VALID,1004.77,VALID,0,VALID,86.4276,VALID,0,VALID,25.7869,VALID,355,VALID,1.08008,
2010-02-24, 00:04:05,VALID,1004.77,VALID,0,VALID,86.1758,VALID,0,VALID,25.8259,VALID,352,VALID,1.19414,
2010-02-24, 00:05:05,VALID,1004.73,VALID,0,VALID,86.0614,VALID,0,VALID,25.8453,VALID,356,VALID,1.4625,
2010-02-24, 00:06:05,VALID,1004.7,VALID,0,VALID,85.8859,VALID,0,VALID,25.8843,VALID,359,VALID,0.737109,
2010-02-24, 00:07:05,VALID,1004.7,VALID,0,VALID,85.9317,VALID,0,VALID,25.8629,VALID,18,VALID,0.716016,
2010-02-24, 00:08:05,VALID,1004.68,VALID,0,VALID,86.0004,VALID,0,VALID,25.8629,VALID,352,VALID,0.833594,
2010-02-24, 00:09:05,VALID,1004.67,VALID,0,VALID,85.9165,VALID,0,VALID,25.8434,VALID,349,VALID,0.813672,
2010-02-24, 00:10:05,VALID,1004.68,VALID,0,VALID,85.9317,VALID,0,VALID,25.8629,VALID,1,VALID,0.720312,
2010-02-24, 00:11:05,VALID,1004.67,VALID,0,VALID,85.9317,VALID,0,VALID,25.8648,VALID,3,VALID,1.51523,
2010-02-24, 00:12:05,VALID,1004.69,VALID,0,VALID,85.9622,VALID,0,VALID,25.8823,VALID,7,VALID,0.680859,
2010-02-24, 00:13:05,VALID,1004.68,VALID,0,VALID,85.8707,VALID,0,VALID,25.8823,VALID,343,VALID,0.543359,
2010-02-24, 00:14:05,VALID,1004.69,VALID,0,VALID,85.9012,VALID,0,VALID,25.9018,VALID,344,VALID,0.649219,
2010-02-24, 00:15:05,VALID,1004.72,VALID,0,VALID,85.8402,VALID,0,VALID,25.9038,VALID,2,VALID,0.789844,
2010-02-24, 00:16:05,VALID,1004.71,VALID,0,VALID,85.8936,VALID,0,VALID,25.9038,VALID,13,VALID,0.864062,
2010-02-24, 00:17:05,VALID,1004.71,VALID,0,VALID,85.9012,VALID,0,VALID,25.8823,VALID,2,VALID,0.584375,
2010-02-24, 00:18:05,VALID,1004.73,VALID,0,VALID,85.9241,VALID,0,VALID,25.8823,VALID,16,VALID,1.36641,
2010-02-24, 00:19:05,VALID,1004.73,VALID,0,VALID,86.0004,VALID,0,VALID,25.8629,VALID,342,VALID,0.847656,
2010-02-24, 00:20:05,VALID,1004.74,VALID,0,VALID,86.0004,VALID,0,VALID,25.8648,VALID,355,VALID,0.920703,
2010-02-24, 00:21:05,VALID,1004.73,VALID,0,VALID,86.1529,VALID,0,VALID,25.8453,VALID,357,VALID,0.787891,
2010-02-24, 00:22:05,VALID,1004.74,VALID,0,VALID,86.3055,VALID,0,VALID,25.8064,VALID,10,VALID,0.851172,
2010-02-24, 00:23:05,VALID,1004.72,VALID,0,VALID,86.5268,VALID,0,VALID,25.8064,VALID,15,VALID,0.512891,
2010-02-24, 00:24:05,VALID,1004.7,VALID,0,VALID,86.6183,VALID,0,VALID,25.746,VALID,344,VALID,0.627344,
2010-02-24, 00:25:05,VALID,1004.7,VALID,0,VALID,86.7251,VALID,0,VALID,25.7285,VALID,358,VALID,0.830859,
2010-02-24, 00:26:05,VALID,1004.7,VALID,0,VALID,86.8395,VALID,0,VALID,25.6876,VALID,5,VALID,0.772266,
2010-02-24, 00:27:05,VALID,1004.7,VALID,0,VALID,86.9921,VALID,0,VALID,25.6895,VALID,15,VALID,0.807813,
2010-02-24, 00:28:05,VALID,1004.68,VALID,0,VALID,86.954,VALID,0,VALID,25.67,VALID,360,VALID,0.879687,
2010-02-24, 00:29:05,VALID,1004.68,VALID,0,VALID,86.9616,VALID,0,VALID,25.6895,VALID,347,VALID,0.600781,
2010-02-24, 00:30:05,VALID,1004.65,VALID,0,VALID,87.1294,VALID,0,VALID,25.6486,VALID,359,VALID,0.770703,
2010-02-24, 00:31:05,VALID,1004.67,VALID,0,VALID,87.1218,VALID,0,VALID,25.6292,VALID,351,VALID,1.02969,
2010-02-24, 00:32:05,VALID,1004.65,VALID,0,VALID,87.1066,VALID,0,VALID,25.6292,VALID,360,VALID,0.876953,
2010-02-24, 00:33:05,VALID,1004.64,VALID,0,VALID,87.1981,VALID,0,VALID,25.67,VALID,353,VALID,1.11133,
2010-02-24, 00:34:05,VALID,1004.62,VALID,0,VALID,87.1981,VALID,0,VALID,25.6506,VALID,360,VALID,0.932422,
2010-02-24, 00:35:05,VALID,1004.6,VALID,0,VALID,87.1066,VALID,0,VALID,25.6486,VALID,1,VALID,1.725,
2010-02-24, 00:36:05,VALID,1004.6,VALID,0,VALID,87.0379,VALID,0,VALID,25.709,VALID,11,VALID,0.710938,
2010-02-24, 00:37:05,VALID,1004.6,VALID,0,VALID,86.8395,VALID,0,VALID,25.6876,VALID,356,VALID,1.29414,
2010-02-24, 00:38:05,VALID,1004.6,VALID,0,VALID,86.7861,VALID,0,VALID,25.7071,VALID,357,VALID,0.617578,
2010-02-24, 00:39:05,VALID,1004.62,VALID,0,VALID,86.8472,VALID,0,VALID,25.7071,VALID,358,VALID,1.25117,
2010-02-24, 00:40:05,VALID,1004.6,VALID,0,VALID,86.8319,VALID,0,VALID,25.7285,VALID,344,VALID,0.513281,
2010-02-24, 00:41:05,VALID,1004.63,VALID,0,VALID,86.8548,VALID,0,VALID,25.6876,VALID,345,VALID,0.957812,
2010-02-24, 00:42:05,VALID,1004.62,VALID,0,VALID,86.9692,VALID,0,VALID,25.6876,VALID,355,VALID,0.786328,
2010-02-24, 00:43:05,VALID,1004.62,VALID,0,VALID,87.015,VALID,0,VALID,25.6681,VALID,355,VALID,0.864453,
2010-02-24, 00:44:05,VALID,1004.59,VALID,0,VALID,86.9845,VALID,0,VALID,25.6895,VALID,348,VALID,1.00156,
2010-02-24, 00:45:05,VALID,1004.58,VALID,0,VALID,86.9082,VALID,0.100563,VALID,25.7285,VALID,327,VALID,0.499609,
2010-02-24, 00:46:05,VALID,1004.57,VALID,0,VALID,86.8929,VALID,0,VALID,25.7285,VALID,2,VALID,1.64805,
2010-02-24, 00:47:05,VALID,1004.56,VALID,0,VALID,86.809,VALID,0.100563,VALID,25.7071,VALID,352,VALID,0.815234,
2010-02-24, 00:48:05,VALID,1004.52,VALID,0,VALID,86.7633,VALID,0,VALID,25.7071,VALID,351,VALID,1.1707,
2010-02-24, 00:49:05,VALID,1004.5,VALID,0,VALID,86.748,VALID,0,VALID,25.7071,VALID,354,VALID,0.554688,
2010-02-24, 00:50:05,VALID,1004.48,VALID,0,VALID,86.7633,VALID,0,VALID,25.748,VALID,1,VALID,1.16484,
2010-02-24, 00:51:05,VALID,1004.43,VALID,0,VALID,86.6488,VALID,0,VALID,25.746,VALID,342,VALID,1.2832,
2010-02-24, 00:52:05,VALID,1004.43,VALID,0,VALID,86.6641,VALID,0.100563,VALID,25.7655,VALID,355,VALID,1.14258,
2010-02-24, 00:53:05,VALID,1004.45,VALID,0,VALID,86.4505,VALID,0,VALID,25.7655,VALID,340,VALID,1.47773,
2010-02-24, 00:54:05,VALID,1004.43,VALID,0,VALID,86.4581,VALID,0,VALID,25.785,VALID,334,VALID,0.463672,
2010-02-24, 00:55:05,VALID,1004.4,VALID,0,VALID,86.4505,VALID,0,VALID,25.785,VALID,351,VALID,1.25312,
2010-02-24, 00:56:05,VALID,1004.4,VALID,0,VALID,86.3437,VALID,0,VALID,25.8259,VALID,350,VALID,0.974609,
2010-02-24, 00:57:05,VALID,1004.38,VALID,0,VALID,86.2903,VALID,0.100563,VALID,25.8239,VALID,343,VALID,1.04258,
2010-02-24, 00:58:05,VALID,1004.37,VALID,0,VALID,86.2826,VALID,0,VALID,25.8044,VALID,350,VALID,1.5668,
2010-02-24, 00:59:05,VALID,1004.37,VALID,0,VALID,86.1987,VALID,0,VALID,25.8648,VALID,344,VALID,0.715625,
2010-02-24, 01:00:05,VALID,1004.35,VALID,0,VALID,86.2064,VALID,0,VALID,25.8629,VALID,8,VALID,1.35352,
2010-02-24, 01:01:05,VALID,1004.35,VALID,0,VALID,86.1911,VALID,0,VALID,25.8434,VALID,353,VALID,0.826953,
2010-02-24, 01:02:05,VALID,1004.33,VALID,0,VALID,86.1758,VALID,0,VALID,25.8434,VALID,354,VALID,1.09531,
2010-02-24, 01:03:05,VALID,1004.34,VALID,0,VALID,86.1453,VALID,0,VALID,25.8629,VALID,351,VALID,0.362109,
2010-02-24, 01:04:05,VALID,1004.3,VALID,0,VALID,86.1606,VALID,0,VALID,25.8629,VALID,355,VALID,0.919922,
2010-02-24, 01:05:05,VALID,1004.3,VALID,0,VALID,86.1301,VALID,0,VALID,25.8843,VALID,7,VALID,1.46016,
2010-02-24, 01:06:05,VALID,1004.28,VALID,0,VALID,86.0995,VALID,0,VALID,25.9038,VALID,8,VALID,1.58711,
2010-02-24, 01:07:05,VALID,1004.23,VALID,0,VALID,86.0538,VALID,0,VALID,25.8823,VALID,350,VALID,1.21602,
2010-02-24, 01:08:05,VALID,1004.24,VALID,0,VALID,85.9851,VALID,0,VALID,25.8823,VALID,346,VALID,0.988672,
2010-02-24, 01:09:05,VALID,1004.18,VALID,0,VALID,86.0385,VALID,0,VALID,25.9018,VALID,348,VALID,0.991016,
2010-02-24, 01:10:05,VALID,1004.18,VALID,0,VALID,85.947,VALID,0,VALID,25.9213,VALID,1,VALID,2.14648,
2010-02-24, 01:11:05,VALID,1004.15,VALID,0,VALID,85.8631,VALID,0,VALID,25.9408,VALID,5,VALID,1.4582,
2010-02-24, 01:12:05,VALID,1004.17,VALID,0,VALID,85.7944,VALID,0,VALID,25.9408,VALID,356,VALID,0.805078,
2010-02-24, 01:13:05,VALID,1004.14,VALID,0,VALID,85.8859,VALID,0.100563,VALID,25.9408,VALID,352,VALID,1.37891,
2010-02-24, 01:14:05,VALID,1004.15,VALID,0,VALID,85.8936,VALID,0,VALID,25.9622,VALID,346,VALID,1.51992,
2010-02-24, 01:15:05,VALID,1004.14,VALID,0,VALID,85.8631,VALID,0,VALID,25.9408,VALID,352,VALID,1.33828,
2010-02-24, 01:16:05,VALID,1004.11,VALID,0,VALID,85.8325,VALID,0,VALID,25.9602,VALID,2,VALID,1.68086,
2010-02-24, 01:17:05,VALID,1004.11,VALID,0,VALID,85.5655,VALID,0,VALID,25.9602,VALID,345,VALID,1.1793,
2010-02-24, 01:18:05,VALID,1004.1,VALID,0,VALID,85.5808,VALID,0,VALID,26.0206,VALID,357,VALID,1.42617,
2010-02-24, 01:19:05,VALID,1004.12,VALID,0,VALID,85.5579,VALID,0,VALID,25.9797,VALID,345,VALID,1.4793,
2010-02-24, 01:20:05,VALID,1004.08,VALID,0,VALID,85.6189,VALID,0,VALID,25.9817,VALID,3,VALID,1.01133,
2010-02-24, 01:21:05,VALID,1004.1,VALID,0,VALID,85.6571,VALID,0,VALID,25.9602,VALID,343,VALID,1.13867,
2010-02-24, 01:22:05,VALID,1004.11,VALID,0,VALID,85.7181,VALID,0,VALID,25.9622,VALID,356,VALID,0.902344,
2010-02-24, 01:23:05,VALID,1004.09,VALID,0,VALID,85.9012,VALID,0,VALID,25.9427,VALID,360,VALID,0.941016,
2010-02-24, 01:24:05,VALID,1004.07,VALID,0,VALID,86.0004,VALID,0,VALID,25.9038,VALID,350,VALID,0.863672,
2010-02-24, 01:25:05,VALID,1004.03,VALID,0,VALID,86.1606,VALID,0,VALID,25.8629,VALID,350,VALID,1.37969,
2010-02-24, 01:26:05,VALID,1004.01,VALID,0,VALID,86.1301,VALID,0,VALID,25.8648,VALID,353,VALID,0.775,
2010-02-24, 01:27:05,VALID,1003.97,VALID,0,VALID,86.2903,VALID,0,VALID,25.8453,VALID,340,VALID,1.06562,
2010-02-24, 01:28:05,VALID,1003.97,VALID,0,VALID,86.42,VALID,0,VALID,25.8044,VALID,329,VALID,0.576563,
2010-02-24, 01:29:05,VALID,1003.93,VALID,0,VALID,86.481,VALID,0,VALID,25.785,VALID,337,VALID,0.776172,
2010-02-24, 01:30:05,VALID,1003.92,VALID,0,VALID,86.6336,VALID,0,VALID,25.746,VALID,353,VALID,1.23359,
2010-02-24, 01:31:05,VALID,1003.91,VALID,0,VALID,86.687,VALID,0,VALID,25.746,VALID,355,VALID,1.28242,
2010-02-24, 01:32:05,VALID,1003.92,VALID,0,VALID,86.7404,VALID,0,VALID,25.748,VALID,290,VALID,0.562891,
2010-02-24, 01:33:05,VALID,1003.92,VALID,0,VALID,86.809,VALID,0,VALID,25.7071,VALID,338,VALID,1.19414,
2010-02-24, 01:34:05,VALID,1003.9,VALID,0,VALID,86.954,VALID,0.100563,VALID,25.6895,VALID,343,VALID,0.644141,
2010-02-24, 01:35:05,VALID,1003.9,VALID,0,VALID,86.9921,VALID,0,VALID,25.6681,VALID,360,VALID,0.635938,
2010-02-24, 01:36:05,VALID,1003.86,VALID,0,VALID,87.0608,VALID,0,VALID,25.6486,VALID,335,VALID,0.851953,
2010-02-24, 01:37:05,VALID,1003.86,VALID,0,VALID,87.076,VALID,0,VALID,25.6292,VALID,325,VALID,1.01602,
2010-02-24, 01:38:05,VALID,1003.87,VALID,0,VALID,87.1676,VALID,0,VALID,25.6097,VALID,339,VALID,0.703906,
2010-02-24, 01:39:05,VALID,1003.86,VALID,0,VALID,87.2744,VALID,0,VALID,25.6116,VALID,355,VALID,0.66875,
2010-02-24, 01:40:05,VALID,1003.84,VALID,0,VALID,87.2973,VALID,0,VALID,25.6116,VALID,342,VALID,0.677734,
2010-02-24, 01:41:05,VALID,1003.83,VALID,0,VALID,87.343,VALID,0,VALID,25.5921,VALID,349,VALID,0.542188,
2010-02-24, 01:42:05,VALID,1003.82,VALID,0,VALID,87.4727,VALID,0,VALID,25.5727,VALID,355,VALID,1.19844,
2010-02-24, 01:43:05,VALID,1003.77,VALID,0,VALID,87.4804,VALID,0,VALID,25.5727,VALID,357,VALID,1.09492,
2010-02-24, 01:44:05,VALID,1003.78,VALID,0,VALID,87.4422,VALID,0,VALID,25.5513,VALID,351,VALID,0.963672,
2010-02-24, 01:45:05,VALID,1003.75,VALID,0,VALID,87.5338,VALID,0,VALID,25.5318,VALID,344,VALID,0.932422,
2010-02-24, 01:46:05,VALID,1003.75,VALID,0,VALID,87.4651,VALID,0,VALID,25.5318,VALID,355,VALID,1.10156,
2010-02-24, 01:47:05,VALID,1003.76,VALID,0,VALID,87.4575,VALID,0,VALID,25.5123,VALID,352,VALID,0.585156,
2010-02-24, 01:48:05,VALID,1003.74,VALID,0,VALID,87.4651,VALID,0,VALID,25.5532,VALID,6,VALID,0.729688,
2010-02-24, 01:49:05,VALID,1003.69,VALID,0,VALID,87.4346,VALID,0,VALID,25.5123,VALID,3,VALID,1.61758,
2010-02-24, 01:50:05,VALID,1003.68,VALID,0,VALID,87.4651,VALID,0,VALID,25.5337,VALID,9,VALID,0.843359,
2010-02-24, 01:51:05,VALID,1003.67,VALID,0,VALID,87.3278,VALID,0,VALID,25.5123,VALID,351,VALID,1.25937,
2010-02-24, 01:52:05,VALID,1003.7,VALID,0,VALID,87.2515,VALID,0,VALID,25.5532,VALID,1,VALID,1.25898,
2010-02-24, 01:53:05,VALID,1003.66,VALID,0,VALID,87.0608,VALID,0,VALID,25.5532,VALID,356,VALID,1.48477,
2010-02-24, 01:54:05,VALID,1003.67,VALID,0,VALID,86.9311,VALID,0,VALID,25.5921,VALID,6,VALID,0.940625,
2010-02-24, 01:55:05,VALID,1003.67,VALID,0,VALID,86.809,VALID,0,VALID,25.5921,VALID,359,VALID,0.637891,
2010-02-24, 01:56:05,VALID,1003.61,VALID,0,VALID,86.7099,VALID,0,VALID,25.5921,VALID,349,VALID,1.03281,
2010-02-24, 01:57:05,VALID,1003.61,VALID,0,VALID,86.6793,VALID,0,VALID,25.6116,VALID,353,VALID,1.12969,
2010-02-24, 01:58:05,VALID,1003.58,VALID,0,VALID,86.481,VALID,0,VALID,25.6097,VALID,360,VALID,1.67578,
2010-02-24, 01:59:05,VALID,1003.58,VALID,0,VALID,86.3437,VALID,0,VALID,25.6292,VALID,3,VALID,1.40625,
2010-02-24, 02:00:05,VALID,1003.57,VALID,0,VALID,86.2369,VALID,0,VALID,25.67,VALID,360,VALID,0.726172,
2010-02-24, 02:01:05,VALID,1003.57,VALID,0,VALID,86.1453,VALID,0,VALID,25.6681,VALID,351,VALID,0.899219,
2010-02-24, 02:02:05,VALID,1003.59,VALID,0,VALID,86.2216,VALID,0,VALID,25.6486,VALID,354,VALID,0.492578,
2010-02-24, 02:03:04,VALID,1003.58,VALID,0,VALID,86.2216,VALID,0,VALID,25.6506,VALID,1,VALID,0.847656,
2010-02-24, 02:04:04,VALID,1003.6,VALID,0,VALID,86.1987,VALID,0,VALID,25.6486,VALID,356,VALID,1.06836,
2010-02-24, 02:05:04,VALID,1003.58,VALID,0,VALID,86.3513,VALID,0,VALID,25.6292,VALID,8,VALID,0.698047,
2010-02-24, 02:06:04,VALID,1003.57,VALID,0,VALID,86.3666,VALID,0,VALID,25.6097,VALID,349,VALID,1.0793,
2010-02-24, 02:07:04,VALID,1003.57,VALID,0,VALID,86.5344,VALID,0,VALID,25.5902,VALID,4,VALID,0.632422,
2010-02-24, 02:08:04,VALID,1003.57,VALID,0,VALID,86.5802,VALID,0.100563,VALID,25.5727,VALID,4,VALID,0.766016,
2010-02-24, 02:09:04,VALID,1003.57,VALID,0,VALID,86.6717,VALID,0,VALID,25.5532,VALID,347,VALID,0.473047,
2010-02-24, 02:10:04,VALID,1003.59,VALID,0,VALID,86.8319,VALID,0,VALID,25.5337,VALID,360,VALID,0.888672,
2010-02-24, 02:11:04,VALID,1003.56,VALID,0,VALID,86.8395,VALID,0,VALID,25.5337,VALID,3,VALID,1.02773,
2010-02-24, 02:12:04,VALID,1003.56,VALID,0,VALID,86.8548,VALID,0,VALID,25.5337,VALID,7,VALID,1.05703,
2010-02-24, 02:13:04,VALID,1003.55,VALID,0,VALID,86.809,VALID,0,VALID,25.5142,VALID,1,VALID,0.452344,
2010-02-24, 02:14:04,VALID,1003.52,VALID,0,VALID,86.7633,VALID,0,VALID,25.4928,VALID,339,VALID,0.782812,
2010-02-24, 02:15:04,VALID,1003.52,VALID,0,VALID,86.7633,VALID,0,VALID,25.5123,VALID,343,VALID,1.15,
2010-02-24, 02:16:04,VALID,1003.54,VALID,0,VALID,86.7785,VALID,0,VALID,25.5337,VALID,349,VALID,0.701563,
2010-02-24, 02:17:04,VALID,1003.5,VALID,0,VALID,86.8777,VALID,0,VALID,25.4928,VALID,341,VALID,0.560156,
2010-02-24, 02:18:04,VALID,1003.51,VALID,0,VALID,86.7709,VALID,0,VALID,25.4948,VALID,352,VALID,0.994141,
2010-02-24, 02:19:04,VALID,1003.48,VALID,0,VALID,86.7861,VALID,0,VALID,25.5142,VALID,352,VALID,0.489062,
2010-02-24, 02:20:04,VALID,1003.51,VALID,0,VALID,86.8548,VALID,0,VALID,25.5142,VALID,309,VALID,0.797656,
2010-02-24, 02:21:04,VALID,1003.49,VALID,0,VALID,86.8929,VALID,0,VALID,25.4734,VALID,358,VALID,1.20625,
2010-02-24, 02:22:04,VALID,1003.48,VALID,0,VALID,86.809,VALID,0,VALID,25.4734,VALID,336,VALID,0.666797,
2010-02-24, 02:23:04,VALID,1003.47,VALID,0,VALID,86.7633,VALID,0,VALID,25.4928,VALID,338,VALID,1.18438,
2010-02-24, 02:24:04,VALID,1003.49,VALID,0,VALID,86.7327,VALID,0,VALID,25.5337,VALID,332,VALID,0.496094,
2010-02-24, 02:25:04,VALID,1003.48,VALID,0,VALID,86.7404,VALID,0,VALID,25.5337,VALID,354,VALID,0.837109,
2010-02-24, 02:26:04,VALID,1003.47,VALID,0,VALID,86.7099,VALID,0,VALID,25.5337,VALID,298,VALID,0.448438,
2010-02-24, 02:27:04,VALID,1003.47,VALID,0,VALID,86.7022,VALID,0,VALID,25.5123,VALID,309,VALID,0.728125,
2010-02-24, 02:28:04,VALID,1003.42,VALID,0,VALID,86.7861,VALID,0,VALID,25.5337,VALID,332,VALID,0.512891,
2010-02-24, 02:29:04,VALID,1003.42,VALID,0,VALID,86.7861,VALID,0,VALID,25.5142,VALID,327,VALID,0.624609,
2010-02-24, 02:30:04,VALID,1003.43,VALID,0,VALID,86.8701,VALID,0,VALID,25.4948,VALID,282,VALID,0.489844,
2010-02-24, 02:31:04,VALID,1003.42,VALID,0,VALID,86.9464,VALID,0,VALID,25.4753,VALID,288,VALID,0.873438,
2010-02-24, 02:32:04,VALID,1003.41,VALID,0,VALID,86.9082,VALID,0,VALID,25.4753,VALID,304,VALID,1.10312,
2010-02-24, 02:33:04,VALID,1003.4,VALID,0,VALID,87.0074,VALID,0,VALID,25.4344,VALID,290,VALID,0.0667969,
2010-02-24, 02:34:04,VALID,1003.38,VALID,0,VALID,87.282,VALID,0,VALID,25.4363,VALID,267,VALID,0.170703,
2010-02-24, 02:35:04,VALID,1003.37,VALID,0,VALID,87.221,VALID,0,VALID,25.4169,VALID,313,VALID,0.6125,
2010-02-24, 02:36:04,VALID,1003.36,VALID,0,VALID,87.3965,VALID,0,VALID,25.3584,VALID,283,VALID,0.599219,
2010-02-24, 02:37:04,VALID,1003.38,VALID,0,VALID,87.5643,VALID,0,VALID,25.3176,VALID,287,VALID,0.568359,
2010-02-24, 02:38:04,VALID,1003.36,VALID,0,VALID,87.6863,VALID,0,VALID,25.339,VALID,271,VALID,0.603516,
2010-02-24, 02:39:04,VALID,1003.31,VALID,0,VALID,87.7245,VALID,0,VALID,25.2786,VALID,291,VALID,0.795313,
2010-02-24, 02:40:04,VALID,1003.31,VALID,0,VALID,87.8084,VALID,0,VALID,25.3019,VALID,293,VALID,0.502344,
2010-02-24, 02:41:04,VALID,1003.28,VALID,0,VALID,87.8389,VALID,0.100563,VALID,25.2786,VALID,281,VALID,0.357031,
2010-02-24, 02:42:04,VALID,1003.29,VALID,0,VALID,87.9228,VALID,0,VALID,25.2611,VALID,264,VALID,0.5625,
2010-02-24, 02:43:04,VALID,1003.3,VALID,0,VALID,87.9839,VALID,0,VALID,25.2202,VALID,280,VALID,0.626172,
2010-02-24, 02:44:04,VALID,1003.27,VALID,0,VALID,87.9991,VALID,0.100563,VALID,25.2416,VALID,287,VALID,0.626172,
2010-02-24, 02:45:04,VALID,1003.29,VALID,0,VALID,88.0144,VALID,0,VALID,25.2202,VALID,273,VALID,0.610156,
2010-02-24, 02:46:04,VALID,1003.26,VALID,0,VALID,88.0144,VALID,0,VALID,25.2416,VALID,300,VALID,0.394922,
2010-02-24, 02:47:04,VALID,1003.26,VALID,0,VALID,87.9686,VALID,0,VALID,25.2416,VALID,283,VALID,0.746094,
2010-02-24, 02:48:04,VALID,1003.26,VALID,0,VALID,87.9762,VALID,0,VALID,25.2416,VALID,241,VALID,0.180078,
2010-02-24, 02:49:04,VALID,1003.25,VALID,0,VALID,87.9839,VALID,0,VALID,25.2202,VALID,321,VALID,0.359375,
2010-02-24, 02:50:04,VALID,1003.19,VALID,0,VALID,88.0068,VALID,0,VALID,25.2416,VALID,311,VALID,0.576172,
2010-02-24, 02:51:04,VALID,1003.2,VALID,0,VALID,88.0449,VALID,0,VALID,25.2221,VALID,330,VALID,0.330859,
2010-02-24, 02:52:04,VALID,1003.17,VALID,0,VALID,88.0678,VALID,0,VALID,25.1813,VALID,347,VALID,0.621094,
2010-02-24, 02:53:04,VALID,1003.15,VALID,0,VALID,88.1441,VALID,0,VALID,25.2007,VALID,324,VALID,0.517969,
2010-02-24, 02:54:04,VALID,1003.12,VALID,0,VALID,88.1746,VALID,0,VALID,25.2027,VALID,355,VALID,0.657422,
2010-02-24, 02:55:04,VALID,1003.08,VALID,0,VALID,88.228,VALID,0,VALID,25.1813,VALID,354,VALID,0.570703,
2010-02-24, 02:56:04,VALID,1003.09,VALID,0,VALID,88.228,VALID,0,VALID,25.1832,VALID,358,VALID,0.193359,
2010-02-24, 02:57:04,VALID,1003.04,VALID,0,VALID,88.2738,VALID,0,VALID,25.1637,VALID,356,VALID,0.592969,
2010-02-24, 02:58:04,VALID,1003.06,VALID,0,VALID,88.3272,VALID,0,VALID,25.1442,VALID,354,VALID,0.850781,
2010-02-24, 02:59:04,VALID,1003.06,VALID,0,VALID,88.3882,VALID,0,VALID,25.1442,VALID,348,VALID,0.586719,
2010-02-24, 03:00:04,VALID,1003.05,VALID,0,VALID,88.4874,VALID,0,VALID,25.1053,VALID,350,VALID,0.555859,
2010-02-24, 03:01:04,VALID,1003,VALID,0,VALID,88.64,VALID,0,VALID,25.0469,VALID,350,VALID,0.345313,
2010-02-24, 03:02:04,VALID,1003.03,VALID,0,VALID,88.8459,VALID,0.100563,VALID,24.9866,VALID,350,VALID,0.395703,
2010-02-24, 03:03:04,VALID,1003.01,VALID,0,VALID,88.9909,VALID,0,VALID,24.9263,VALID,350,VALID,0.420703,
2010-02-24, 03:04:04,VALID,1002.99,VALID,0,VALID,89.1664,VALID,0,VALID,24.9087,VALID,349,VALID,0.474609,
2010-02-24, 03:05:04,VALID,1002.98,VALID,0,VALID,89.3266,VALID,0,VALID,24.8503,VALID,349,VALID,0.229687,
2010-02-24, 03:06:04,VALID,1002.96,VALID,0,VALID,89.5631,VALID,0.100563,VALID,24.7919,VALID,349,VALID,0.494922,
2010-02-24, 03:07:04,VALID,1002.95,VALID,0,VALID,89.8224,VALID,0.100563,VALID,24.8132,VALID,349,VALID,0.423047,
2010-02-24, 03:08:04,VALID,1002.97,VALID,0,VALID,89.8682,VALID,0,VALID,24.7956,VALID,358,VALID,0.635938,
2010-02-24, 03:09:04,VALID,1002.96,VALID,0,VALID,90.0208,VALID,0,VALID,24.6945,VALID,358,VALID,0.167969,
2010-02-24, 03:10:04,VALID,1002.97,VALID,0,VALID,90.2878,VALID,0,VALID,24.6769,VALID,358,VALID,0.199609,
2010-02-24, 03:11:04,VALID,1002.98,VALID,0,VALID,90.6235,VALID,0,VALID,24.6166,VALID,349,VALID,0.350781,
2010-02-24, 03:12:04,VALID,1002.97,VALID,0,VALID,90.8676,VALID,0,VALID,24.5777,VALID,349,VALID,0.55,
2010-02-24, 03:13:04,VALID,1002.94,VALID,0,VALID,91.0888,VALID,0,VALID,24.5582,VALID,349,VALID,0.279297,
2010-02-24, 03:14:04,VALID,1002.96,VALID,0,VALID,91.3253,VALID,0,VALID,24.5406,VALID,349,VALID,0,
2010-02-24, 03:15:04,VALID,1002.96,VALID,0,VALID,91.4092,VALID,0,VALID,24.5193,VALID,349,VALID,0.444531,
2010-02-24, 03:16:04,VALID,1002.97,VALID,0,VALID,91.5389,VALID,0,VALID,24.5193,VALID,350,VALID,0.493359,
2010-02-24, 03:17:04,VALID,1002.94,VALID,0,VALID,91.5923,VALID,0.100563,VALID,24.5193,VALID,350,VALID,0,
2010-02-24, 03:18:04,VALID,1002.97,VALID,0,VALID,91.5542,VALID,0,VALID,24.5406,VALID,350,VALID,0,
2010-02-24, 03:19:04,VALID,1002.99,VALID,0,VALID,91.6076,VALID,0,VALID,24.5193,VALID,350,VALID,0,
2010-02-24, 03:20:04,VALID,1002.98,VALID,0,VALID,91.5847,VALID,0,VALID,24.5406,VALID,350,VALID,0.307813,
2010-02-24, 03:21:04,VALID,1002.99,VALID,0,VALID,91.5695,VALID,0,VALID,24.5193,VALID,350,VALID,0.444922,
2010-02-24, 03:22:04,VALID,1003.04,VALID,0,VALID,91.7449,VALID,0,VALID,24.5796,VALID,3,VALID,1.22422,
2010-02-24, 03:23:04,VALID,1003.05,VALID,0,VALID,91.4626,VALID,0,VALID,24.638,VALID,13,VALID,0.566016,
2010-02-24, 03:24:04,VALID,1003.05,VALID,0,VALID,91.2338,VALID,0,VALID,24.6769,VALID,360,VALID,0.310937,
2010-02-24, 03:25:04,VALID,1003.09,VALID,0,VALID,90.9744,VALID,0,VALID,24.6556,VALID,360,VALID,0.229687,
2010-02-24, 03:26:04,VALID,1003.1,VALID,0,VALID,90.8218,VALID,0,VALID,24.6769,VALID,360,VALID,0.0441406,
2010-02-24, 03:27:04,VALID,1003.12,VALID,0,VALID,90.7074,VALID,0,VALID,24.6769,VALID,360,VALID,0.242578,
2010-02-24, 03:28:04,VALID,1003.11,VALID,0,VALID,90.6082,VALID,0,VALID,24.675,VALID,360,VALID,0.528906,
2010-02-24, 03:29:04,VALID,1003.12,VALID,0,VALID,90.7074,VALID,0,VALID,24.7353,VALID,349,VALID,0.790625,
2010-02-24, 03:30:04,VALID,1003.09,VALID,0,VALID,90.3412,VALID,0,VALID,24.7743,VALID,352,VALID,1.05664,
2010-02-24, 03:31:04,VALID,1003.11,VALID,0,VALID,89.9216,VALID,0,VALID,24.8503,VALID,344,VALID,0.714453,
2010-02-24, 03:32:04,VALID,1003.14,VALID,0,VALID,89.3876,VALID,0.100563,VALID,24.9106,VALID,344,VALID,0.755469,
2010-02-24, 03:33:04,VALID,1003.1,VALID,0,VALID,89.2732,VALID,0,VALID,24.9087,VALID,348,VALID,0.746094,
2010-02-24, 03:34:04,VALID,1003.13,VALID,0,VALID,89.1511,VALID,0,VALID,24.93,VALID,352,VALID,0.675391,
2010-02-24, 03:35:04,VALID,1003.15,VALID,0,VALID,89.1053,VALID,0,VALID,24.9087,VALID,1,VALID,0.503906,
2010-02-24, 03:36:04,VALID,1003.17,VALID,0,VALID,89.0214,VALID,0,VALID,24.9282,VALID,15,VALID,1.26797,
2010-02-24, 03:37:04,VALID,1003.15,VALID,0,VALID,88.8841,VALID,0,VALID,24.9476,VALID,355,VALID,0.558594,
2010-02-24, 03:38:04,VALID,1003.16,VALID,0,VALID,88.7468,VALID,0,VALID,24.9866,VALID,353,VALID,0.876953,
2010-02-24, 03:39:04,VALID,1003.14,VALID,0,VALID,88.495,VALID,0.100563,VALID,25.0255,VALID,355,VALID,1.08086,
2010-02-24, 03:40:04,VALID,1003.15,VALID,0,VALID,88.2738,VALID,0,VALID,25.0839,VALID,23,VALID,0.582031,
2010-02-24, 03:41:04,VALID,1003.13,VALID,0,VALID,88.0754,VALID,0,VALID,25.1229,VALID,360,VALID,0.979297,
2010-02-24, 03:42:04,VALID,1003.18,VALID,0,VALID,87.7703,VALID,0,VALID,25.1832,VALID,351,VALID,0.519141,
2010-02-24, 03:43:04,VALID,1003.16,VALID,0,VALID,87.5261,VALID,0.100563,VALID,25.2202,VALID,12,VALID,1.16875,
2010-02-24, 03:44:04,VALID,1003.18,VALID,0,VALID,87.2591,VALID,0,VALID,25.2592,VALID,6,VALID,0.773438,
2010-02-24, 03:45:04,VALID,1003.19,VALID,0,VALID,87.0684,VALID,0,VALID,25.2786,VALID,5,VALID,1.08984,